Houghton Lake, MI

8:39 PM EDT on September 30, 2016 (GMT -0400)
Roscommon County

Weather History for KHTL - January, 2013

Change the Weather History Date:

Sunday, January 13, 2013

  Actual Average Record
Temperature  
Mean Temperature 29 °F 18 °F  
Max Temperature 34 °F 26 °F 48 °F (1932)
Min Temperature 23 °F 10 °F -18 °F (2015)
Degree Days  
Heating Degree Days 36 47  
Month to date heating degree days 477 602  
Since 1 July heating degree days 3286 3759  
Moisture  
Dew Point 29 °F    
Average Humidity 91    
Maximum Humidity 100    
Minimum Humidity 81    
Precipitation  
Precipitation 0.23 in 0.05 in 0.73 in (2005)
Month to date precipitation 0.96 0.69  
Year to date precipitation 0.96 0.69  
Snow  
Snow T in 0.60 in 7.10 in (1979)
Month to date snowfall 0.8 7.0  
Since 1 July snowfall 21.3 32.0  
Snow Depth T in    
Sea Level Pressure  
Sea Level Pressure 29.88 in    
Wind  
Wind Speed 6 mph (WNW)    
Max Wind Speed 21 mph    
Max Gust Speed 28 mph    
Visibility 8 miles    
Events Rain , Snow    
T = Trace of Precipitation, MM = Missing Value Source: NWS Daily Summary

Daily Weather History Graph

Daily Weather History Graph

Search for Another Location

Airport or City:

Trip Planner

Search our weather history database for the weather conditions in past years. The results will help you decide how hot, cold, wet, or windy it might be!

Date:

Astronomy

Jan. 13, 2013 Rise Set
Actual Time 8:12 AM EST 5:23 PM EST
Civil Twilight 7:39 AM EST 5:55 PM EST
Nautical Twilight 7:03 AM EST 6:31 PM EST
Astronomical Twilight 6:28 AM EST 7:06 PM EST
Moon 9:03 AM EST (1/13) 8:08 PM EST (1/13)
Length of Visible Light 10h 15m
Length of Day
9h 11m
Waxing Crescent, 5% of the Moon is Illuminated
Jan 13
Waxing Crescent
Jan 18
First Quarter
Jan 26
Full
Feb 3
Last Quarter
Feb 10
New

Hourly Weather History & Observations

Time (EST) Temp. Windchill Dew Point Humidity Pressure Visibility Wind Dir Wind Speed Gust Speed Precip Events Conditions
12:53 AM 34.0 °F - 32.0 °F 92% 29.92 in 10.0 mi Calm Calm - 0.01 in Rain Light Rain
1:53 AM 33.1 °F - 32.0 °F 96% 29.88 in 8.0 mi Calm Calm - 0.04 in Rain Light Rain
2:53 AM 33.1 °F 28.7 °F 32.0 °F 96% 29.88 in 5.0 mi NW 4.6 mph - 0.04 in Rain Rain
3:53 AM 33.1 °F - 30.9 °F 92% 29.87 in 8.0 mi Calm Calm - 0.06 in Rain Light Rain
4:29 AM 32.0 °F 27.5 °F 30.2 °F 93% 29.85 in 5.0 mi WNW 4.6 mph - 0.04 in   Overcast
4:46 AM 32.0 °F 28.7 °F 30.2 °F 93% 29.85 in 6.0 mi WSW 3.5 mph - 0.05 in   Overcast
4:53 AM 32.0 °F - 32.0 °F 100% 29.87 in 5.0 mi Calm Calm - 0.06 in   Overcast
5:12 AM 32.0 °F 28.7 °F 30.2 °F 93% 29.82 in 5.0 mi ESE 3.5 mph - 0.01 in   Overcast
5:53 AM 32.0 °F 28.7 °F 30.9 °F 96% 29.83 in 8.0 mi East 3.5 mph - 0.01 in   Overcast
6:53 AM 32.0 °F - 32.0 °F 100% 29.83 in 10.0 mi Calm Calm - N/A   Overcast
7:19 AM 32.0 °F 24.2 °F 30.2 °F 93% 29.83 in 10.0 mi West 9.2 mph - N/A   Overcast
7:41 AM 32.0 °F 27.5 °F 30.2 °F 93% 29.81 in 10.0 mi NW 4.6 mph - N/A   Overcast
7:53 AM 32.0 °F 28.7 °F 30.9 °F 96% 29.84 in 10.0 mi NW 3.5 mph - N/A   Overcast
8:53 AM 32.0 °F 27.5 °F 30.9 °F 96% 29.89 in 10.0 mi West 4.6 mph - N/A   Overcast
9:36 AM 32.0 °F 25.6 °F 30.2 °F 93% 29.87 in 2.5 mi WNW 6.9 mph - 0.00 in   Overcast
9:53 AM 30.9 °F 23.5 °F 30.0 °F 96% 29.92 in 2.5 mi NW 8.1 mph - 0.01 in Rain Light Freezing Rain
10:22 AM 30.2 °F 22.6 °F 30.2 °F 100% 29.87 in 3.0 mi NW 8.1 mph - 0.00 in Rain Light Freezing Rain
10:53 AM 30.9 °F 25.2 °F 28.9 °F 92% 29.94 in 6.0 mi WNW 5.8 mph - 0.00 in   Overcast
11:33 AM 30.2 °F 23.4 °F 28.4 °F 93% 29.88 in 6.0 mi WNW 6.9 mph - N/A   Overcast
11:41 AM 30.2 °F 22.6 °F 28.4 °F 93% 29.88 in 4.0 mi WNW 8.1 mph - N/A   Overcast
11:53 AM 30.0 °F 22.4 °F 28.9 °F 96% 29.93 in 6.0 mi WNW 8.1 mph - N/A   Overcast
12:02 PM 30.2 °F 23.4 °F 28.4 °F 93% 29.88 in 6.0 mi WNW 6.9 mph - N/A   Overcast
12:19 PM 30.2 °F 23.4 °F 28.4 °F 93% 29.87 in 9.0 mi WNW 6.9 mph - N/A   Overcast
12:27 PM 30.2 °F 24.3 °F 28.4 °F 93% 29.86 in 10.0 mi WNW 5.8 mph - N/A   Overcast
12:53 PM 30.9 °F 26.2 °F 28.9 °F 92% 29.87 in 10.0 mi West 4.6 mph - N/A   Overcast
1:53 PM 30.0 °F 21.7 °F 28.0 °F 92% 29.90 in 6.0 mi West 9.2 mph - N/A   Overcast
2:49 PM 30.2 °F 22.6 °F 28.4 °F 93% 29.86 in 7.0 mi West 8.1 mph - N/A   Overcast
2:53 PM 30.0 °F 21.7 °F 28.0 °F 92% 29.90 in 9.0 mi West 9.2 mph - N/A   Overcast
3:00 PM 30.2 °F 22.6 °F 28.4 °F 93% 29.86 in 10.0 mi West 8.1 mph - N/A   Overcast
3:14 PM 30.2 °F 22.6 °F 28.4 °F 93% 29.87 in 10.0 mi West 8.1 mph - N/A   Overcast
3:25 PM 30.2 °F 22.6 °F 28.4 °F 93% 29.87 in 6.0 mi West 8.1 mph - N/A   Overcast
3:44 PM 30.2 °F 24.3 °F 28.4 °F 93% 29.89 in 1.8 mi West 5.8 mph - 0.00 in Snow Light Snow
3:53 PM 30.0 °F 24.1 °F 28.0 °F 92% 29.93 in 2.5 mi West 5.8 mph - 0.00 in Snow Light Snow
4:02 PM 30.2 °F 22.6 °F 28.4 °F 93% 29.88 in 4.0 mi West 8.1 mph - 0.00 in Snow Light Snow
4:27 PM 30.2 °F 24.3 °F 28.4 °F 93% 29.87 in 10.0 mi West 5.8 mph - 0.00 in   Overcast
4:53 PM 30.0 °F 24.1 °F 28.0 °F 92% 29.89 in 10.0 mi NW 5.8 mph - 0.00 in   Overcast
5:15 PM 30.2 °F 26.7 °F 28.4 °F 93% 29.85 in 10.0 mi WNW 3.5 mph - N/A   Overcast
5:53 PM 28.9 °F 22.8 °F 27.0 °F 92% 29.91 in 10.0 mi WNW 5.8 mph - N/A   Overcast
6:53 PM 28.0 °F 20.0 °F 26.1 °F 92% 29.91 in 9.0 mi WNW 8.1 mph - 0.00 in   Overcast
7:53 PM 27.0 °F 18.7 °F 24.1 °F 89% 29.93 in 10.0 mi West 8.1 mph - N/A   Overcast
8:53 PM 27.0 °F 16.7 °F 24.1 °F 89% 29.94 in 10.0 mi West 11.5 mph - N/A   Overcast
9:53 PM 25.0 °F 12.2 °F 21.0 °F 85% 29.96 in 10.0 mi West 16.1 mph 23.0 mph N/A   Overcast
10:53 PM 24.1 °F 12.0 °F 19.9 °F 84% 29.98 in 10.0 mi West 13.8 mph 21.9 mph N/A   Overcast
11:53 PM 23.0 °F 10.1 °F 18.0 °F 81% 30.01 in 10.0 mi West 15.0 mph 24.2 mph N/A   Overcast